Track STARLINK-5408 now! 10-day predictions STARLINK-5408 is classified as:
1 54810U 22175BE 24325.48312629 -.00001147 00000-0 -53973-4 0 9992 2 54810 53.2169 352.6860 0001323 91.5192 268.5952 15.08841885108613